Location: Arbon
(43.0005°N, 0.7472°E)
Time: 21:21:45
(UTC+00:00)

Explorer 7 - Pass Details

Date: 29 November 2020
Orbit: 484 x 678 km, 50.3° (Epoch: 25 January)

Event Time Altitude Azimuth Distance (km) Brightness Sun altitude
Rises 23:37:44 0° 188° (S) 2,977 - -68.6°
Reaches altitude 10° 23:41:01 10° 165° (SSE) 2,042 - -68.7°
Maximum altitude 23:43:39 15° 131° (SE) 1,714 - -68.7°
Drops below altitude 10° 23:46:13 10° 97° (E) 1,990 - -68.7°
Sets 23:49:20 0° 74° (ENE) 2,856 - -68.7°
